Weather in Saltanovka

Russia / Bryansk Oblast     52°46′25″N   34°17′35″E
temp.,
°C
wind,
m/s
gust,
m/s
humid.,
%
clouds,
%
prec.,
mm/h
press.,
hPa
HPBL,
m
17 june, thu
thu1700:00+15ne37930 0.0 1018142
03:00+13nne38930 0.0 1019137
06:00+14ne410930 0.0 1020260
09:00+21ene59670 0.0 1021880
12:00+23ene56460 0.0 10221423
15:00+24ene56450 0.0 10221421
18:00+22ene58590 0.0 1022937
21:00+16ene38810 0.0 1024183
18 june, fri
fri1800:00+14ene311870 0.0 1024220
03:00+12ene310949 0.0 1025198
06:00+14ene310880 0.0 1025242
09:00+20e48613 0.0 1026742
12:00+23e57510 0.0 10251345
15:00+24e56520 0.0 10251462
18:00+23e46620 0.0 10251122
21:00+17e35890 0.0 102594
19 june, sat
sat1900:00+15e38945 0.0 1026146
03:00+13e37964 0.0 1026139
06:00+14ene37890 0.0 1026189
09:00+20e47630 0.0 1026691
12:00+23ese56570 0.0 10251170
15:00+25ese56570 0.0 10241320
18:00+24ese46650 0.0 1023996
21:00+18e36890 0.0 1024127
20 june, sun
sun2000:00+16ese36943 0.0 1024115
03:00+15e36940 0.0 1024103
06:00+16e37880 0.0 1024192
09:00+21ese46635 0.0 1023604
12:00+24ese4656100 0.0 1023853
15:00+26ese455177 0.0 10211061
18:00+25ese466297 0.0 1021772
21:00+19e3789100 0.0 1021135
21 june, mon
mon2100:00+18ese3886100 0.0 1020191
03:00+18e398096 0.0 1020232
06:00+18ese3108299 0.0 1020318
09:00+23e51065100 0.0 1019528
12:00+25ese4762100 0.0 1019788
15:00+28e685653 0.0 10181048
18:00+27ese596694 0.0 1018795
21:00+22e3108770 0.0 1018298